Time,TemperatureF,DewpointF,PressureIn,WindDirection,WindDirectionDegrees,WindSpeedMPH,WindSpeedGustMPH,Humidity,HourlyPrecipIn,Conditions,Clouds,dailyrainin,SoftwareType,DateUTC
2013-02-09 00:02:00,28.0,19.0,-100.00,WNW,300,4.0,9.0,68,0.00,,,-99.99,,2013-02-09 05:02:00,
2013-02-09 00:12:00,28.0,19.0,-100.00,WNW,300,4.0,9.0,68,0.00,,,-99.99,,2013-02-09 05:12:00,
2013-02-09 00:22:00,28.0,19.0,-100.00,WNW,300,4.0,9.0,70,0.00,,,-99.99,,2013-02-09 05:22:00,
2013-02-09 00:32:00,28.0,19.0,-100.00,NW,310,5.0,12.0,68,0.00,,,-99.99,,2013-02-09 05:32:00,
2013-02-09 00:42:00,27.0,18.0,-100.00,NW,310,6.0,10.0,67,0.00,,,-99.99,,2013-02-09 05:42:00,
2013-02-09 00:52:00,27.0,18.0,-100.00,NW,310,6.0,10.0,67,0.00,,,-99.99,,2013-02-09 05:52:00,
2013-02-09 01:02:00,27.0,18.0,-100.00,NW,315,2.0,6.0,67,0.00,,,-99.99,,2013-02-09 06:02:00,
2013-02-09 01:11:00,27.0,18.0,-100.00,North,0,1.0,8.0,68,0.00,,,-99.99,,2013-02-09 06:11:00,
2013-02-09 01:21:00,27.0,18.0,-100.00,North,10,4.0,9.0,67,0.00,,,-99.99,,2013-02-09 06:21:00,
2013-02-09 01:32:00,27.0,17.0,-100.00,North,0,3.0,10.0,67,0.00,,,-99.99,,2013-02-09 06:32:00,
2013-02-09 01:42:00,26.0,17.0,-100.00,North,0,3.0,11.0,67,0.00,,,-99.99,,2013-02-09 06:42:00,
2013-02-09 01:51:00,26.0,17.0,-100.00,North,0,2.0,8.0,67,0.00,,,-99.99,,2013-02-09 06:51:00,
2013-02-09 02:01:00,26.0,17.0,-100.00,NW,315,6.0,12.0,68,0.00,,,-99.99,,2013-02-09 07:01:00,
2013-02-09 02:11:00,26.0,17.0,-100.00,WNW,300,6.0,12.0,67,0.00,,,-99.99,,2013-02-09 07:11:00,
2013-02-09 02:21:00,26.0,17.0,-100.00,WNW,295,6.0,9.0,67,0.00,,,-99.99,,2013-02-09 07:21:00,
2013-02-09 02:32:00,26.0,17.0,-100.00,WNW,295,6.0,9.0,68,0.00,,,-99.99,,2013-02-09 07:32:00,
2013-02-09 02:42:00,26.0,17.0,-100.00,WNW,295,5.0,9.0,67,0.00,,,-99.99,,2013-02-09 07:42:00,
2013-02-09 02:51:00,26.0,17.0,-100.00,WNW,300,2.0,6.0,68,0.00,,,-99.99,,2013-02-09 07:51:00,
2013-02-09 03:01:00,26.0,17.0,-100.00,WNW,295,4.0,6.0,68,0.00,,,-99.99,,2013-02-09 08:01:00,
2013-02-09 03:11:00,26.0,17.0,-100.00,WNW,300,2.0,6.0,68,0.00,,,-99.99,,2013-02-09 08:11:00,
2013-02-09 03:21:00,26.0,18.0,-100.00,NNW,345,1.0,4.0,69,0.00,,,-99.99,,2013-02-09 08:21:00,
2013-02-09 03:32:00,26.0,17.0,-100.00,WNW,295,4.0,6.0,68,0.00,,,-99.99,,2013-02-09 08:32:00,
2013-02-09 03:42:00,26.0,17.0,-100.00,NW,310,4.0,6.0,68,0.00,,,-99.99,,2013-02-09 08:42:00,
2013-02-09 03:52:00,26.0,17.0,-100.00,North,10,0.0,4.0,67,0.00,,,-99.99,,2013-02-09 08:52:00,
2013-02-09 04:03:00,26.0,17.0,-100.00,North,0,1.0,6.0,67,0.00,,,-99.99,,2013-02-09 09:03:00,
2013-02-09 04:11:00,26.0,17.0,-100.00,North,5,2.0,5.0,68,0.00,,,-99.99,,2013-02-09 09:11:00,
2013-02-09 04:21:00,26.0,18.0,-100.00,NW,305,0.0,1.0,69,0.00,,,-99.99,,2013-02-09 09:21:00,
2013-02-09 04:32:00,26.0,17.0,-100.00,WNW,290,2.0,6.0,69,0.00,,,-99.99,,2013-02-09 09:32:00,
2013-02-09 04:42:00,26.0,17.0,-100.00,WNW,295,4.0,7.0,68,0.00,,,-99.99,,2013-02-09 09:42:00,
2013-02-09 04:51:00,26.0,17.0,-100.00,WNW,295,2.0,7.0,68,0.00,,,-99.99,,2013-02-09 09:51:00,
2013-02-09 05:01:00,26.0,17.0,-100.00,WNW,295,3.0,6.0,68,0.00,,,-99.99,,2013-02-09 10:01:00,
2013-02-09 05:11:00,26.0,17.0,-100.00,WNW,300,1.0,4.0,68,0.00,,,-99.99,,2013-02-09 10:11:00,
2013-02-09 05:21:00,26.0,17.0,-100.00,WNW,290,1.0,4.0,69,0.00,,,-99.99,,2013-02-09 10:21:00,
2013-02-09 05:32:00,26.0,17.0,-100.00,NW,310,0.0,4.0,68,0.00,,,-99.99,,2013-02-09 10:32:00,
2013-02-09 05:42:00,26.0,17.0,-100.00,NNW,345,1.0,4.0,67,0.00,,,-99.99,,2013-02-09 10:42:00,
2013-02-09 05:51:00,26.0,17.0,-100.00,NNE,15,1.0,4.0,68,0.00,,,-99.99,,2013-02-09 10:51:00,
2013-02-09 06:01:00,26.0,17.0,-100.00,North,5,1.0,4.0,68,0.00,,,-99.99,,2013-02-09 11:01:00,
2013-02-09 06:11:00,25.0,16.0,-100.00,North,10,1.0,3.0,68,0.00,,,-99.99,,2013-02-09 11:11:00,
2013-02-09 06:22:00,25.0,16.0,-100.00,NNW,335,0.0,2.0,69,0.00,,,-99.99,,2013-02-09 11:22:00,
2013-02-09 06:32:00,25.0,16.0,-100.00,North,350,0.0,4.0,69,0.00,,,-99.99,,2013-02-09 11:32:00,
2013-02-09 06:41:00,24.0,16.0,-100.00,NE,45,0.0,1.0,71,0.00,,,-99.99,,2013-02-09 11:41:00,
2013-02-09 06:52:00,24.0,16.0,-100.00,NNE,25,0.0,3.0,71,0.00,,,-99.99,,2013-02-09 11:52:00,
2013-02-09 07:02:00,24.0,16.0,-100.00,North,10,0.0,1.0,72,0.00,,,-99.99,,2013-02-09 12:02:00,
2013-02-09 07:11:00,24.0,17.0,-100.00,NE,45,0.0,1.0,73,0.00,,,-99.99,,2013-02-09 12:11:00,
2013-02-09 07:21:00,24.0,16.0,-100.00,NE,55,0.0,1.0,73,0.00,,,-99.99,,2013-02-09 12:21:00,
2013-02-09 07:32:00,22.0,16.0,-100.00,SSW,210,0.0,1.0,77,0.00,,,-99.99,,2013-02-09 12:32:00,
2013-02-09 07:42:00,22.0,16.0,-100.00,SW,225,0.0,3.0,78,0.00,,,-99.99,,2013-02-09 12:42:00,
2013-02-09 07:52:00,22.0,17.0,-100.00,WSW,250,0.0,2.0,80,0.00,,,-99.99,,2013-02-09 12:52:00,
2013-02-09 08:02:00,21.0,17.0,-100.00,SSW,200,0.0,0.0,82,0.00,,,-99.99,,2013-02-09 13:02:00,
2013-02-09 08:11:00,21.0,17.0,-100.00,South,190,0.0,3.0,84,0.00,,,-99.99,,2013-02-09 13:11:00,
2013-02-09 08:22:00,21.0,17.0,-100.00,SSW,205,0.0,3.0,84,0.00,,,-99.99,,2013-02-09 13:22:00,
2013-02-09 08:32:00,21.0,17.0,-100.00,SW,235,0.0,2.0,84,0.00,,,-99.99,,2013-02-09 13:32:00,
2013-02-09 08:42:00,22.0,17.0,-100.00,SW,235,0.0,2.0,83,0.00,,,-99.99,,2013-02-09 13:42:00,
2013-02-09 08:52:00,22.0,18.0,-100.00,North,5,0.0,1.0,84,0.00,,,-99.99,,2013-02-09 13:52:00,
2013-02-09 09:01:00,22.0,18.0,-100.00,South,190,0.0,1.0,82,0.00,,,-99.99,,2013-02-09 14:01:00,
2013-02-09 09:11:00,23.0,18.0,-100.00,SSW,205,0.0,0.0,80,0.55,,,-99.99,,2013-02-09 14:11:00,
2013-02-09 09:21:00,25.0,18.0,-100.00,SW,225,0.0,1.0,76,0.00,,,-99.99,,2013-02-09 14:21:00,
2013-02-09 09:32:00,26.0,18.0,-100.00,SE,145,0.0,3.0,70,0.55,,,-99.99,,2013-02-09 14:32:00,
2013-02-09 09:42:00,27.0,18.0,-100.00,East,100,0.0,3.0,67,0.00,,,-99.99,,2013-02-09 14:42:00,
2013-02-09 09:52:00,28.0,16.0,-100.00,NE,45,1.0,4.0,62,0.00,,,-99.99,,2013-02-09 14:52:00,
2013-02-09 10:02:00,27.0,16.0,-100.00,East,85,2.0,6.0,61,0.00,,,-99.99,,2013-02-09 15:02:00,
2013-02-09 10:11:00,28.0,17.0,-100.00,South,185,0.0,2.0,61,0.00,,,-99.99,,2013-02-09 15:11:00,
2013-02-09 10:21:00,28.0,16.0,-100.00,NNE,15,2.0,5.0,59,0.00,,,-99.99,,2013-02-09 15:21:00,
2013-02-09 10:32:00,28.0,16.0,-100.00,NW,325,0.0,3.0,59,0.00,,,-99.99,,2013-02-09 15:32:00,
2013-02-09 10:42:00,29.0,17.0,-100.00,SSE,165,0.0,2.0,57,0.00,,,-99.99,,2013-02-09 15:42:00,
2013-02-09 10:51:00,29.0,17.0,-100.00,NE,50,2.0,5.0,59,0.00,,,-99.99,,2013-02-09 15:51:00,
2013-02-09 11:01:00,30.0,17.0,-100.00,ENE,60,1.0,5.0,56,0.00,,,-99.99,,2013-02-09 16:01:00,
2013-02-09 11:11:00,30.0,17.0,-100.00,South,175,1.0,6.0,58,0.00,,,-99.99,,2013-02-09 16:11:00,
2013-02-09 11:22:00,30.0,15.0,-100.00,East,85,6.0,9.0,54,0.00,,,-99.99,,2013-02-09 16:22:00,
2013-02-09 11:32:00,30.0,16.0,-100.00,SW,215,1.0,5.0,56,0.00,,,-99.99,,2013-02-09 16:32:00,
2013-02-09 11:42:00,31.0,16.0,-100.00,NE,55,1.0,6.0,52,0.00,,,-99.99,,2013-02-09 16:42:00,
2013-02-09 11:52:00,32.0,15.0,-100.00,ENE,75,2.0,6.0,48,0.00,,,-99.99,,2013-02-09 16:52:00,
2013-02-09 12:01:00,31.0,15.0,-100.00,NNE,25,2.0,4.0,50,0.00,,,-99.99,,2013-02-09 17:01:00,
2013-02-09 12:11:00,33.0,15.0,-100.00,NE,45,1.0,3.0,48,0.00,,,-99.99,,2013-02-09 17:11:00,
2013-02-09 12:21:00,32.0,16.0,-100.00,East,90,4.0,7.0,50,0.00,,,-99.99,,2013-02-09 17:21:00,
2013-02-09 12:32:00,34.0,17.0,-100.00,NNW,345,0.0,4.0,50,0.00,,,-99.99,,2013-02-09 17:32:00,
2013-02-09 12:42:00,33.0,16.0,-100.00,East,85,2.0,7.0,49,0.00,,,-99.99,,2013-02-09 17:42:00,
2013-02-09 12:52:00,34.0,17.0,-100.00,SSE,150,0.0,5.0,48,0.00,,,-99.99,,2013-02-09 17:52:00,
2013-02-09 13:02:00,34.0,16.0,-100.00,WSW,255,1.0,5.0,46,0.00,,,-99.99,,2013-02-09 18:02:00,
2013-02-09 13:12:00,35.0,18.0,-100.00,West,260,2.0,7.0,48,0.00,,,-99.99,,2013-02-09 18:12:00,
2013-02-09 13:23:00,35.0,17.0,-100.00,WNW,295,1.0,8.0,47,0.00,,,-99.99,,2013-02-09 18:23:00,
2013-02-09 13:32:00,35.0,16.0,-100.00,NNW,335,1.0,4.0,44,0.00,,,-99.99,,2013-02-09 18:32:00,
2013-02-09 13:42:00,35.0,16.0,-100.00,NNW,330,1.0,7.0,44,0.00,,,-99.99,,2013-02-09 18:42:00,
2013-02-09 13:52:00,36.0,15.0,-100.00,WNW,295,1.0,5.0,42,0.00,,,-99.99,,2013-02-09 18:52:00,
2013-02-09 14:01:00,36.0,14.0,-100.00,SE,145,1.0,2.0,39,0.00,,,-99.99,,2013-02-09 19:01:00,
2013-02-09 14:11:00,38.0,15.0,-100.00,WNW,290,1.0,4.0,39,0.00,,,-99.99,,2013-02-09 19:11:00,
2013-02-09 14:22:00,37.0,15.0,-100.00,NNW,345,1.0,4.0,40,0.00,,,-99.99,,2013-02-09 19:22:00,
2013-02-09 14:32:00,36.0,13.0,-100.00,North,5,0.0,4.0,37,0.00,,,-99.99,,2013-02-09 19:32:00,
2013-02-09 14:42:00,38.0,13.0,-100.00,SW,215,2.0,4.0,36,0.00,,,-99.99,,2013-02-09 19:42:00,
2013-02-09 14:52:00,37.0,17.0,-100.00,South,175,1.0,5.0,42,0.00,,,-99.99,,2013-02-09 19:52:00,
2013-02-09 15:02:00,37.0,14.0,-100.00,ENE,60,2.0,4.0,38,0.00,,,-99.99,,2013-02-09 20:02:00,
2013-02-09 15:11:00,38.0,16.0,-100.00,NW,315,1.0,4.0,39,0.00,,,-99.99,,2013-02-09 20:11:00,
2013-02-09 15:21:00,38.0,12.0,-100.00,North,10,0.0,6.0,33,0.00,,,-99.99,,2013-02-09 20:21:00,
2013-02-09 15:32:00,37.0,14.0,-100.00,ENE,75,4.0,6.0,37,0.00,,,-99.99,,2013-02-09 20:32:00,
2013-02-09 15:42:00,38.0,14.0,-100.00,North,0,2.0,4.0,36,0.00,,,-99.99,,2013-02-09 20:42:00,
2013-02-09 15:52:00,39.0,13.0,-100.00,SE,135,0.0,6.0,34,0.00,,,-99.99,,2013-02-09 20:52:00,
2013-02-09 16:02:00,38.0,11.0,-100.00,NE,55,1.0,6.0,33,0.00,,,-99.99,,2013-02-09 21:02:00,
2013-02-09 16:11:00,38.0,13.0,-100.00,North,0,0.0,6.0,33,0.00,,,-99.99,,2013-02-09 21:11:00,
2013-02-09 16:21:00,38.0,14.0,-100.00,NE,45,1.0,4.0,36,0.00,,,-99.99,,2013-02-09 21:21:00,
2013-02-09 16:32:00,39.0,15.0,-100.00,North,0,1.0,4.0,36,0.00,,,-99.99,,2013-02-09 21:32:00,
2013-02-09 16:42:00,38.0,14.0,-100.00,ENE,60,3.0,6.0,35,0.00,,,-99.99,,2013-02-09 21:42:00,
2013-02-09 16:52:00,39.0,15.0,-100.00,ESE,115,0.0,4.0,36,0.00,,,-99.99,,2013-02-09 21:52:00,
2013-02-09 17:01:00,39.0,14.0,-100.00,NE,55,1.0,3.0,34,0.00,,,-99.99,,2013-02-09 22:01:00,
2013-02-09 17:11:00,40.0,13.0,-100.00,East,80,1.0,5.0,34,0.00,,,-99.99,,2013-02-09 22:11:00,
2013-02-09 17:21:00,39.0,13.0,-100.00,ENE,75,0.0,3.0,34,0.00,,,-99.99,,2013-02-09 22:21:00,
2013-02-09 17:32:00,39.0,15.0,-100.00,SE,130,0.0,4.0,35,0.00,,,-99.99,,2013-02-09 22:32:00,
2013-02-09 17:42:00,38.0,16.0,-100.00,NE,45,1.0,3.0,39,0.00,,,-99.99,,2013-02-09 22:42:00,
2013-02-09 17:52:00,38.0,13.0,-100.00,ESE,115,0.0,2.0,34,0.00,,,-99.99,,2013-02-09 22:52:00,
2013-02-09 18:02:00,35.0,18.0,-100.00,ESE,110,0.0,3.0,48,0.00,,,-99.99,,2013-02-09 23:02:00,
2013-02-09 18:11:00,35.0,17.0,-100.00,ENE,70,0.0,2.0,47,0.00,,,-99.99,,2013-02-09 23:11:00,
2013-02-09 18:21:00,33.0,19.0,-100.00,SE,145,0.0,1.0,55,0.00,,,-99.99,,2013-02-09 23:21:00,
2013-02-09 18:32:00,32.0,19.0,-100.00,SE,135,0.0,2.0,58,0.00,,,-99.99,,2013-02-09 23:32:00,
2013-02-09 18:42:00,32.0,20.0,-100.00,SSE,165,0.0,3.0,62,0.00,,,-99.99,,2013-02-09 23:42:00,
2013-02-09 18:52:00,31.0,20.0,-100.00,SE,135,0.0,2.0,65,0.00,,,-99.99,,2013-02-09 23:52:00,
2013-02-09 19:02:00,30.0,20.0,-100.00,South,185,0.0,2.0,66,0.00,,,-99.99,,2013-02-10 00:02:00,
2013-02-09 19:12:00,29.0,20.0,-100.00,WSW,250,0.0,3.0,68,0.00,,,-99.99,,2013-02-10 00:12:00,
2013-02-09 19:22:00,29.0,21.0,-100.00,WSW,245,0.0,2.0,70,0.00,,,-99.99,,2013-02-10 00:22:00,
2013-02-09 19:32:00,29.0,21.0,-100.00,NE,45,0.0,0.0,71,0.00,,,-99.99,,2013-02-10 00:32:00,
2013-02-09 19:42:00,28.0,21.0,-100.00,SSW,210,0.0,1.0,74,0.00,,,-99.99,,2013-02-10 00:42:00,
2013-02-09 19:51:00,28.0,21.0,-100.00,SSW,210,0.0,1.0,75,0.00,,,-99.99,,2013-02-10 00:51:00,
2013-02-09 20:01:00,28.0,21.0,-100.00,SW,235,0.0,3.0,76,0.00,,,-99.99,,2013-02-10 01:01:00,
2013-02-09 20:12:00,28.0,21.0,-100.00,WSW,250,0.0,3.0,76,0.00,,,-99.99,,2013-02-10 01:12:00,
2013-02-09 20:21:00,28.0,21.0,-100.00,WSW,240,0.0,4.0,74,0.00,,,-99.99,,2013-02-10 01:21:00,
2013-02-09 20:32:00,28.0,21.0,-100.00,North,355,0.0,3.0,75,0.00,,,-99.99,,2013-02-10 01:32:00,
2013-02-09 20:42:00,27.0,21.0,-100.00,NE,55,0.0,2.0,76,0.00,,,-99.99,,2013-02-10 01:42:00,
2013-02-09 20:51:00,27.0,21.0,-100.00,WSW,240,0.0,2.0,78,0.00,,,-99.99,,2013-02-10 01:51:00,
2013-02-09 21:01:00,27.0,21.0,-100.00,SW,235,0.0,1.0,79,0.00,,,-99.99,,2013-02-10 02:01:00,
2013-02-09 21:11:00,25.0,20.0,-100.00,SW,225,0.0,1.0,80,0.00,,,-99.99,,2013-02-10 02:11:00,
2013-02-09 21:22:00,25.0,20.0,-100.00,SSW,210,0.0,0.0,81,0.00,,,-99.99,,2013-02-10 02:22:00,
2013-02-09 21:32:00,26.0,20.0,-100.00,SSE,160,0.0,1.0,80,0.00,,,-99.99,,2013-02-10 02:32:00,
2013-02-09 21:42:00,26.0,21.0,-100.00,North,5,0.0,2.0,81,0.00,,,-99.99,,2013-02-10 02:42:00,
2013-02-09 21:52:00,25.0,20.0,-100.00,West,265,0.0,2.0,81,0.00,,,-99.99,,2013-02-10 02:52:00,
2013-02-09 22:02:00,25.0,21.0,-100.00,NE,35,0.0,1.0,83,0.00,,,-99.99,,2013-02-10 03:02:00,
2013-02-09 22:11:00,24.0,20.0,-100.00,South,175,0.0,2.0,84,0.00,,,-99.99,,2013-02-10 03:11:00,
2013-02-09 22:21:00,24.0,20.0,-100.00,SW,235,0.0,1.0,85,0.00,,,-99.99,,2013-02-10 03:21:00,
2013-02-09 22:32:00,24.0,21.0,-100.00,NW,310,0.0,1.0,85,0.00,,,-99.99,,2013-02-10 03:32:00,
2013-02-09 22:42:00,23.0,20.0,-100.00,South,190,0.0,1.0,85,0.00,,,-99.99,,2013-02-10 03:42:00,
2013-02-09 22:51:00,23.0,20.0,-100.00,SW,230,0.0,1.0,86,0.00,,,-99.99,,2013-02-10 03:51:00,
2013-02-09 23:01:00,24.0,20.0,-100.00,East,85,0.0,1.0,86,0.00,,,-99.99,,2013-02-10 04:01:00,
2013-02-09 23:11:00,23.0,19.0,-100.00,SSW,210,0.0,1.0,86,0.00,,,-99.99,,2013-02-10 04:11:00,
2013-02-09 23:21:00,22.0,19.0,-100.00,WSW,245,0.0,1.0,87,0.00,,,-99.99,,2013-02-10 04:21:00,
2013-02-09 23:32:00,22.0,19.0,-100.00,South,170,0.0,1.0,86,0.00,,,-99.99,,2013-02-10 04:32:00,
2013-02-09 23:42:00,22.0,19.0,-100.00,SSW,195,0.0,0.0,88,0.00,,,-99.99,,2013-02-10 04:42:00,
2013-02-09 23:52:00,22.0,19.0,-100.00,SSW,195,0.0,1.0,90,0.00,,,-99.99,,2013-02-10 04:52:00,